Powrót do katalogu

SL-16 DEB

AktywnyLEO
NORAD 22806·DEBRIS·🇷🇺 Russia

Wystrzelony Sep 16, 1993 z Baikonur Cosmodrome

Loading…

Następne Przeloty (najbliższe 24 godziny)

TLE

ŚwieżeSource: Space-Track

Epoka: Sep 14, 2026, 06:50 UTC

1 22806U 93059E   26257.28531316  .00000026  00000-0  63954-4 0  9994
2 22806  71.0206 349.8071 0201737 236.7654 153.3148 13.73947947653363

Śledź SL-16 DEB w czasie rzeczywistym z AllMySat

Download on the App Store